Weather History for Ames, IA

Change the Weather History Date:

Monday, November 17, 2014

  Actual Average Record
Temperature  
Mean Temperature 13 °F 36 °F  
Max Temperature 17 °F 45 °F 69 °F (2001)
Min Temperature 8 °F 26 °F 3 °F (2005)
Degree Days  
Heating Degree Days 52 29  
Month to date heating degree days 535 427  
Since 1 July heating degree days 1102 1023  
Cooling Degree Days 0 0  
Month to date cooling degree days 0 0  
Year to date cooling degree days 650 752  
Moisture  
Dew Point 4 °F    
Average Humidity 71    
Maximum Humidity 76    
Minimum Humidity 66    
Precipitation  
Precipitation T in 0.07 in 0.46 in (1978)
Month to date precipitation 0.20 1.46  
Sea Level Pressure  
Sea Level Pressure 30.13 in    
Wind  
Wind Speed 17 mph (WNW)    
Max Wind Speed 29 mph    
Max Gust Speed 37 mph    
Visibility 8 miles    
Events Snow    
T = Trace of Precipitation, MM = Missing Value Source: NWS Daily Summary

Daily Weather History Graph

Daily Weather History Graph

Search for Another Location

Airport:

Trip Planner

Search our weather history database for the weather conditions in past years. The results will help you decide how hot, cold, wet, or windy it might be!

Date:

Astronomy

Nov. 17, 2014 Rise Set
Actual Time 7:06 AM CST 4:51 PM CST
Civil Twilight 6:36 AM CST 5:21 PM CST
Nautical Twilight 6:02 AM CST 5:55 PM CST
Astronomical Twilight 5:29 AM CST 6:28 PM CST
Moon 2:04 AM CST (11/17) 2:20 PM CST (11/17)
Length of Visible Light 10h 45m
Length of Day
9h 44m
Waning Crescent, 22% of the Moon is Illuminated
Nov 17
Waning Crescent
Nov 22
New
Nov 29
First Quarter
Dec 6
Full
Dec 14
Last Quarter

Hourly Weather History & Observations

Time (CST) Temp. Windchill Dew Point Humidity Pressure Visibility Wind Dir Wind Speed Gust Speed Precip Events Conditions
12:53 AM 15.1 °F 0.5 °F 8.1 °F 74% 30.05 in 10.0 mi WNW 13.8 mph - N/A   Clear
1:53 AM 14.0 °F -1.4 °F 7.0 °F 74% 30.05 in 10.0 mi WNW 15.0 mph - N/A   Clear
2:53 AM 12.9 °F -2.8 °F 7.0 °F 77% 30.06 in 10.0 mi WNW 15.0 mph 24.2 mph N/A   Clear
3:53 AM 12.0 °F -4.5 °F 6.1 °F 77% 30.05 in 10.0 mi NW 16.1 mph - N/A   Clear
4:53 AM 12.0 °F -3.4 °F 6.1 °F 77% 30.07 in 10.0 mi NW 13.8 mph 21.9 mph N/A   Mostly Cloudy
5:53 AM 12.0 °F -4.0 °F 3.0 °F 67% 30.09 in 10.0 mi NW 15.0 mph - N/A   Mostly Cloudy
6:53 AM 10.0 °F -7.1 °F 1.9 °F 70% 30.12 in 10.0 mi NW 16.1 mph 23.0 mph N/A   Partly Cloudy
7:53 AM 9.0 °F -7.3 °F -0.0 °F 67% 30.12 in 10.0 mi WNW 13.8 mph - N/A   Clear
8:53 AM 10.0 °F -8.6 °F 1.0 °F 67% 30.13 in 10.0 mi WNW 19.6 mph - N/A   Clear
9:53 AM 10.9 °F -6.5 °F 1.9 °F 67% 30.13 in 10.0 mi WNW 17.3 mph 28.8 mph N/A   Partly Cloudy
10:43 AM 12.0 °F -6.5 °F 3.0 °F 67% 30.08 in 10.0 mi WNW 20.7 mph 28.8 mph N/A   Mostly Cloudy
10:53 AM 12.9 °F -6.1 °F 3.9 °F 67% 30.13 in 10.0 mi NW 23.0 mph 27.6 mph N/A   Mostly Cloudy
11:53 AM 12.9 °F -4.4 °F 3.9 °F 67% 30.12 in 10.0 mi West 18.4 mph 26.5 mph N/A   Mostly Cloudy
12:53 PM 14.0 °F -3.0 °F 5.0 °F 67% 30.11 in 10.0 mi West 18.4 mph 29.9 mph N/A   Overcast
1:53 PM 12.9 °F -6.5 °F 3.9 °F 67% 30.12 in 6.0 mi WNW 24.2 mph 34.5 mph N/A   Haze
2:53 PM 12.9 °F -6.1 °F 3.9 °F 67% 30.13 in 9.0 mi WNW 23.0 mph 32.2 mph 0.00 in   Overcast
3:53 PM 12.9 °F -4.9 °F 5.0 °F 71% 30.16 in 2.5 mi WNW 19.6 mph 31.1 mph 0.00 in Snow Light Snow
4:03 PM 12.9 °F -5.3 °F 5.0 °F 71% 30.11 in 5.0 mi WNW 20.7 mph 32.2 mph 0.00 in   Haze
4:19 PM 12.0 °F -5.1 °F 6.1 °F 77% 30.11 in 1.8 mi NW 17.3 mph 28.8 mph 0.00 in Snow Light Snow
4:25 PM 12.9 °F -5.7 °F 5.0 °F 71% 30.11 in 3.0 mi WNW 21.9 mph 31.1 mph 0.00 in Snow Light Snow
4:41 PM 12.0 °F -6.9 °F 5.0 °F 73% 30.12 in 1.8 mi NW 21.9 mph 27.6 mph 0.00 in Snow Light Snow
4:53 PM 12.0 °F -5.6 °F 6.1 °F 77% 30.17 in 1.2 mi NW 18.4 mph 26.5 mph 0.00 in Snow Light Snow
4:59 PM 12.0 °F -6.5 °F 3.9 °F 70% 30.12 in 3.0 mi NW 20.7 mph 29.9 mph 0.00 in Snow Light Snow
5:33 PM 10.9 °F -7.5 °F 3.0 °F 70% 30.13 in 10.0 mi WNW 19.6 mph 26.5 mph 0.00 in   Scattered Clouds
5:53 PM 10.9 °F -7.5 °F 1.9 °F 67% 30.19 in 10.0 mi WNW 19.6 mph 27.6 mph 0.00 in   Partly Cloudy
6:53 PM 10.9 °F -7.0 °F 3.0 °F 70% 30.20 in 10.0 mi WNW 18.4 mph 25.3 mph N/A   Scattered Clouds
7:53 PM 10.0 °F -6.5 °F 1.9 °F 70% 30.21 in 10.0 mi WNW 15.0 mph - N/A   Clear
8:53 PM 9.0 °F -6.6 °F 1.9 °F 73% 30.21 in 10.0 mi WNW 12.7 mph - N/A   Clear
9:53 PM 9.0 °F -7.9 °F 1.0 °F 70% 30.22 in 10.0 mi WNW 15.0 mph - N/A   Clear
10:53 PM 9.0 °F -7.3 °F 1.0 °F 70% 30.21 in 10.0 mi WNW 13.8 mph - N/A   Clear
11:53 PM 8.1 °F -7.7 °F -0.0 °F 70% 30.19 in 10.0 mi West 12.7 mph - N/A   Clear